• Processing (Info)

  • MPEC 2022-N02 : 2022 MK3

    The following Minor Planet Electronic Circular may be linked-to from your own Web pages, but must not otherwise be redistributed electronically.

    A form allowing access to any MPEC is at the bottom of this page.


    Read MPEC 2022-N01 Read MPEC 2022-N03


    M.P.E.C. 2022-N02                                  Issued 2022 July 1, 11:44 UT
    
         The Minor Planet Electronic Circulars contain information on unusual
             minor planets and routine data on comets.  They are published
        on behalf of Division F of the International Astronomical Union by the
              Minor Planet Center, Smithsonian Astrophysical Observatory,
                              Cambridge, MA 02138, U.S.A.
    
                 Prepared using the Tamkin Foundation Computer Network
    
                                  MPC@CFA.HARVARD.EDU
                URL https://www.minorplanetcenter.net/    ISSN 1523-6714
    
                                    2022 MK3                                 
    
    
    Observations:
         K22M03K  C2022 06 27.53135320 20 30.198-14 41 27.57         20.27GVEN002F52
         K22M03K  C2022 06 27.55428520 20 37.379-14 44 05.29         20.20GVEN002F52
         K22M03K*KC2022 06 30.23737 20 36 12.87 -19 51 24.9          19.1 GVEN002W94
         K22M03K KC2022 06 30.24305 20 36 14.67 -19 52 04.0          18.9 GVEN002W94
         K22M03K KC2022 06 30.24883 20 36 16.53 -19 52 43.2          19.1 GVEN002W94
         K22M03K KC2022 07 01.01931020 40 48.69 -21 21 20.7          19.4 GXEN002958
         K22M03K KC2022 07 01.02277720 40 49.72 -21 21 44.7          20.2 GXEN002I93
         K22M03K KC2022 07 01.02704220 40 51.19 -21 22 15.0          19.7 GXEN002I93
         K22M03K KC2022 07 01.02907920 40 51.92 -21 22 27.9          19.5 GXEN002958
         K22M03K KC2022 07 01.02960220 40 52.13 -21 22 32.0          19.4 GXEN002958
         K22M03K KC2022 07 01.03130420 40 52.58 -21 22 44.0          19.7 GXEN002I93
         K22M03K KC2022 07 01.03542920 40 53.89 -21 23 11.5          20.1 GXEN002I93
         K22M03K KC2022 07 01.03877320 40 55.17 -21 23 34.9          19.6 GXEN002958
         K22M03K KC2022 07 01.03895520 40 55.06 -21 23 36.1          19.4 GXEN002958
         K22M03K KC2022 07 01.04140320 40 59.279-21 22 32.57         20.2 GXEN002Y00
         K22M03K KC2022 07 01.04785720 40 58.12 -21 24 36.6          19.1 GXEN002958
         K22M03K KC2022 07 01.05004620 41 02.194-21 23 31.68         19.8 GXEN002Y00
         K22M03K KC2022 07 01.05864820 41 05.080-21 24 30.97         19.8 GXEN002Y00
         K22M03K 2C2022 07 01.08952220 41 11.90 -21 29 14.9          20.2 GVEN002Z84
         K22M03K 2C2022 07 01.10194620 41 15.94 -21 30 38.8          20.0 GVEN002Z84
         K22M03K 2C2022 07 01.11437020 41 19.99 -21 32 02.7          20.7 GVEN002Z84
         K22M03K |C2022 07 01.23298 20 42 03.90 -21 44 07.7          20.5 VuEN002807
         K22M03K |C2022 07 01.23631 20 42 05.00 -21 44 30.3          20.5 VuEN002807
         K22M03K |C2022 07 01.23964 20 42 06.06 -21 44 53.2          20.2 VuEN002807
         K22M03K KC2022 07 01.32137320 42 33.91 -21 55 23.1          19.8 VuEN002H21
         K22M03K KC2022 07 01.32311120 42 34.48 -21 55 35.6          20.5 VuEN002H21
         K22M03K KC2022 07 01.32485020 42 35.07 -21 55 47.2          20.1 VuEN002H21
         K22M03K KC2022 07 01.32676320 42 35.72 -21 55 59.4          20.1 VuEN002H21
         K22M03K KC2022 07 01.40048 20 42 58.07 -22 03 00.9          19.7 GVEN002W95
         K22M03K KC2022 07 01.40568 20 42 59.84 -22 03 37.0                VEN002W95
         K22M03K KC2022 07 01.41087 20 43 01.50 -22 04 10.1                VEN002W95
    
    Observer details:
    807 Cerro Tololo Observatory, La Serena.  Observers T. Linder, R. Holmes, L.
        Horn.  0.61-m f/6.5 Dall-Kirkham Astrograph + CCD.
    958 Observatoire de Dax.  Observers P. Dupouy, J. B. de Vanssay.  Measurer P.
        Dupouy.  0.50-m f/4.5 Reflector + CCD, 0.43-m f/2.7 Reflector + CCD.
    F52 Pan-STARRS 2, Haleakala.  Observers J. Bulger, K. Chambers, T. Dukes, T.
        Lowe, A. Schultz, I. Smith.  Measurers S. Chastel, J. Fairlamb, M. Huber,
        Y. Ramanjooloo, R. Wainscoat, R. Weryk.  1.8-m Ritchey-Chretien + CCD.
    H21 Astronomical Research Observatory, Westfield.  Observer R. Holmes.
        Measurers T. Linder, R. Holmes, L. Horn.  1.3-m f/4.0 astrograph + CCD.
    I93 St Pardon de Conques.  Observer F. Losse.  0.40-m f/3.7 reflector + CCD.
    W94 MAP, San Pedro de Atacama.  Observers A. Maury, G. Attard.  Measurers A.
        Maury, G. Attard, D. Parrott.  0.28-m f/2.2 Schmidt astrograph + CCD.
    W95 Observatorio Panameno, San Pedro de Atacama.  Observers A. Maury, G.
        Attard, J. Fabrega.  Measurers A. Maury, G. Attard, D. Parrott.  0.40-m
        f/3.8 reflector + CCD.
    Y00 SONEAR Observatory, Oliveira.  Observer C. Jacques.  0.45-m f/2.9 0.45-m
        f/2.9 reflector + CCD.
    Z84 Calar Alto-Schmidt.  Observer E. Schwab.  Measurers E. Schwab, D. Koschny,
        M. Micheli.  0.8-m f/3 Schmidt + CCD.
    
    Orbital elements:
    2022 MK3                                                 Earth MOID = 0.1023 AU
    Epoch 2022 Aug. 9.0 TT = JDT 2459800.5                  Veres                   
    M  17.83140              (2000.0)            P               Q                  
    n   0.41009554     Peri.  176.89940     +0.12859343     +0.96550339             
    a   1.7942351      Node   100.40637     -0.91474589     +0.20366430             
    e   0.3764952      Incl.   13.30936     -0.38301917     -0.16224693             
    P   2.40           H   23.36          G   0.15           U   8                  
    Residuals in seconds of arc
    220627 F52  0.1-  0.0     220701 I93  0.6-  0.5+    220701 807  0.0   0.1+
    220627 F52  0.1+  0.0     220701 958  0.9+  0.7-    220701 807  0.3-  0.1-
    220630 W94  0.7+  0.2-    220701 958  1.5-  0.7-    220701 H21  0.0   0.2+
    220630 W94  0.4+  0.3-    220701 Y00  0.1+  0.9-    220701 H21  0.0   0.6-
    220630 W94  0.4+  0.2+    220701 958  0.4+  0.5-    220701 H21  0.3+  0.5-
    220701 958  0.1+  0.7+    220701 Y00  0.2+  0.2-    220701 H21  0.6+  0.2+
    220701 I93  0.5-  1.0+    220701 Y00  0.2+  0.1-    220701 W95  0.1+  0.4+
    220701 I93  0.4+  0.2-    220701 Z84  0.0   0.0     220701 W95  0.7+  1.3-
    220701 958  0.1+  0.2+    220701 Z84  0.0   0.1+    220701 W95  0.1-  0.0
    220701 958  0.7+  0.3-    220701 Z84  0.0   0.2+
    220701 I93  0.1+  0.1-    220701 807  0.2-  0.1+
    
    Ephemeris:
    2022 MK3                 a,e,i = 1.79, 0.38, 13                  q = 1.1187
    Date    TT    R. A. (2000) Decl.     Delta      r    Elong.  Phase     V
    2022 06 01    18 23 06.2 +17 52 00   0.1860  1.1470   132.1    41.0    21.6
    ...
    2022 06 16    19 20 21.9 +04 49 00   0.1329  1.1236   142.1    33.7    20.6
    ...
    2022 06 24    20 00 45.0 -08 02 00   0.1175  1.1190   149.2    27.7    20.2
    ...
    2022 06 30    20 34 48.0 -19 24 18   0.1149  1.1192   151.8    25.4    20.1
    2022 07 01    20 40 39.9 -21 17 58   0.1153  1.1196   151.7    25.5    20.1
    2022 07 02    20 46 33.4 -23 10 03   0.1159  1.1200   151.6    25.6    20.1
    ...
    2022 07 08    21 21 46.5 -33 22 50   0.1242  1.1245   148.6    28.1    20.3
    ...
    2022 07 16    22 04 49.1 -43 17 52   0.1449  1.1354   142.9    32.7    20.8
    ...
    2022 07 31    22 58 46.3 -52 17 16   0.2011  1.1694   136.6    36.6    21.7
    
    M. P. C. Staff               (C) Copyright 2022 MPC           M.P.E.C. 2022-N02
    


    Read MPEC 2022-N01 Read MPEC 2022-N03


    MPEC number:

    Enter an MPEC number in one of the following forms:

    • 1997-B01 (the full form)
    • J97B01 (the packed version of the full form)
    • B01 (the abbreviated form)